STARLINK-32418

Last updated on Thu Jan 23 2025 00:02:04 GMT+0000 (Coordinated Universal Time)

1 62429U 24249W 25022.50001157 -.01520417 00000+0 -38336-1 0 9999 2 62429 43.0000 131.2542 0001241 274.8650 107.4191 15.42224694 4534
UTC large
Height (km)
Speed (km/s)
/
Latitude / Longitude
Inclination (degrees)
Orbital Period (minutes)
Azimuth
Elevation
Range (km)
Doppler Factor

Next 0 passes for location: London (51.5072 / 0.1276)

Sorry there are no passes over London.